[[{"header":{"parameterUnit":"m.s-1","parameterCategory":1,"la1":30.2991,"la2":30.254,"lo1":-89.0895,"lo2":-89.0444,"dy":0.0017,"dx":0.0017,"nx":28,"ny":28,"refTime":"2023-04-12T21:00:00:Z","depth":0,"parameterNumber":2,"parameterNumberName":"U-component_of_WINDS"},"data":[0,0,0,0,0,0,0,0,0,0,0,0,0,0,0,0,0,0,0,0,0,0,0,0,0,0,0,0,0,0,0,0,0,0,0,0,0,0,0,0,0,0,0,0,0,0,0,0,0,0,0,0,0,0,0,0,0,0,-0.7976,-0.7978,0,-0.814,-0.8142,-0.8144,-0.8154,-0.8152,-0.815,-0.8148,-0.8337,-0.8344,-0.835,0,0,0,0,0,0,0,0,0,0,0,0,0,-0.7691,-0.7696,-0.7976,-0.7978,-0.798,-0.8139,-0.8142,-0.8144,-0.8154,-0.8152,-0.815,-0.8147,-0.8335,-0.8343,-0.8351,0,0,0,0,0,0,0,0,0,0,0,0,0,-0.7831,-0.7697,-0.7975,-0.8003,-0.8008,-0.8139,-0.8142,-0.8145,-0.8155,-0.8152,-0.8149,-0.8146,-0.8332,-0.8342,-0.8352,-0.8473,0,0,-0.8383,-0.8388,0,0,0,0,0,0,0,0,-0.7823,-0.7841,-0.7997,-0.8002,-0.8007,-0.8123,-0.811,-0.8255,-0.8155,-0.81,-0.8148,-0.8145,-0.827,-0.8285,-0.8322,-0.8482,-0.849,-0.8384,-0.839,-0.8395,-0.8398,0,0,0,0,0,0,0,-0.7813,-0.7835,-0.8041,-0.8,-0.8005,-0.8014,-0.8031,-0.8138,-0.82,-0.8104,-0.8105,-0.8123,-0.8272,-0.8313,-0.8327,-0.8492,-0.8384,-0.8393,-0.8399,-0.8403,-0.876,-0.8764,0,0,0,0,0,0,-0.7795,-0.7826,-0.8036,-0.8046,-0.7905,-0.8022,-0.804,-0.8089,-0.8198,-0.8211,-0.8126,-0.8123,-0.8296,-0.8315,-0.8334,-0.8482,-0.8395,-0.8404,-0.841,-0.8757,-0.8761,-0.8765,0,0,0,0,0,0,-0.7789,-0.7814,-0.8029,-0.7936,-0.7964,-0.803,-0.8084,-0.8094,-0.8134,-0.8214,-0.8227,-0.8155,-0.8295,-0.8319,-0.8437,-0.8489,-0.8409,-0.8418,-0.8753,-0.8758,-0.8763,-0.878,0,0,0,0,0,0,-0.7781,-0.7811,-0.7853,-0.7937,-0.7969,-0.8124,-0.8087,-0.8099,-0.8149,-0.8148,-0.8245,-0.8258,-0.8295,-0.8421,-0.8447,-0.8502,-0.8426,-0.8749,-0.8755,-0.8761,-0.8775,-0.8785,-0.8793,0,0,0,0,0,-0.7771,-0.7856,-0.7855,-0.7881,-0.8022,-0.8127,-0.8146,-0.818,-0.8153,-0.8199,-0.825,-0.8255,-0.8478,-0.8433,-0.8462,-0.8521,-0.8746,-0.8754,-0.8761,-0.8771,-0.8783,-0.8793,0,0,0,0,0,0,-0.7785,-0.7868,-0.7868,-0.7982,-0.8046,-0.8128,-0.8187,-0.8191,-0.827,-0.8266,-0.8312,-0.8334,-0.845,-0.8498,-0.8445,-0.8644,-0.861,-0.8624,-0.8608,-0.862,-0.8629,-0.8616,-0.8435,0,0,0,0,0,-0.7799,-0.7871,-0.7943,-0.8037,-0.8068,-0.8121,-0.8169,-0.8188,-0.826,-0.829,-0.835,-0.8425,-0.8512,-0.8569,-0.8653,-0.8782,-0.8805,-0.8837,-0.8846,-0.8853,-0.8865,-0.8938,-0.8953,-0.879,-0.8789,-0.8789,0,0,-0.7834,-0.7888,-0.7932,-0.8041,-0.8093,-0.8172,-0.8145,-0.823,-0.8291,-0.8305,-0.8417,-0.8464,-0.8552,-0.8674,-0.8732,-0.8718,-0.8915,-0.8862,-0.8867,-0.8876,-0.8947,-0.8962,-0.8976,-0.8795,-0.8794,-0.8793,0,0,-0.7937,-0.7983,-0.8066,-0.8117,-0.8194,-0.8229,-0.8249,-0.833,-0.8359,-0.8471,-0.8483,-0.856,-0.8708,-0.8769,-0.882,-0.8944,-0.8953,-0.8972,-0.902,-0.9091,-0.9104,-0.9115,-0.9161,-0.9177,-0.8983,-0.8983,-0.8983,0,-0.7972,-0.8084,-0.811,-0.8193,-0.8242,-0.8251,-0.8339,-0.839,-0.8494,-0.853,-0.8511,-0.8696,-0.8756,-0.8894,-0.8923,-0.8964,-0.8992,-0.8961,-0.9098,-0.911,-0.9122,-0.9166,-0.9183,-0.8985,-0.8985,-0.8984,-0.8984,0,-0.8124,-0.8202,-0.8261,-0.8352,-0.8408,-0.8494,-0.8538,-0.8593,-0.8608,-0.8647,-0.8763,-0.8834,-0.8932,-0.8967,-0.8986,-0.9109,-0.9097,-0.9087,-0.9055,-0.9138,-0.9181,-0.9198,-0.8987,-0.8987,-0.8986,-0.8986,0,0,-0.8242,-0.8343,-0.8365,-0.8406,-0.8491,-0.8555,-0.8643,-0.8732,-0.8779,-0.8851,-0.8929,-0.9053,-0.9044,-0.9101,-0.9127,-0.9189,-0.9284,-0.9173,-0.9175,-0.9192,-0.9426,-0.9433,-0.9452,-0.9289,-0.9293,-0.9295,-0.9419,0,-0.8354,-0.8501,-0.8527,-0.8659,-0.8734,-0.8743,-0.882,-0.8884,-0.8922,-0.8997,-0.9042,-0.9129,-0.911,-0.9145,-0.9206,-0.9259,-0.9332,-0.9251,-0.9368,-0.9371,-0.9345,-0.9474,-0.9482,-0.9595,-0.9436,-0.9439,-0.9441,0,-0.8505,-0.8572,-0.8709,-0.8782,-0.8815,-0.8882,-0.8967,-0.9035,-0.911,-0.9134,-0.9196,-0.9215,-0.9312,-0.9273,-0.941,-0.9354,-0.9404,-0.9438,-0.9443,-0.9457,-0.9412,-0.9493,-0.9632,-0.965,-0.9467,-0.9465,-0.9463,0,-0.8578,-0.8704,-0.8801,-0.8837,-0.8925,-0.8972,-0.9013,-0.9083,-0.9135,-0.9212,-0.9247,-0.9336,-0.9386,-0.9457,-0.9501,-0.9468,-0.9636,-0.9601,-0.9663,-0.9662,-0.97,-0.9697,-0.985,-0.9729,-0.9729,-0.9729,-0.9729,0,-0.8702,-0.8786,-0.8835,-0.8895,-0.8991,-0.9022,-0.9119,-0.916,-0.9222,-0.9295,-0.9312,-0.9382,-0.9434,-0.9514,-0.955,-0.9659,-0.9682,-0.9708,-0.9717,-0.9707,-0.9704,-0.9741,-0.9735,-0.9733,-0.9732,-0.9732,-0.9731,0,-0.88,-0.8835,-0.8943,-0.9015,-0.9036,-0.9103,-0.9169,-0.9231,-0.9268,-0.9361,-0.9385,-0.9447,-0.954,-0.959,-0.971,-0.9734,-0.9857,-0.9861,-0.9829,-0.9833,-0.9893,-0.9887,-1.0078,-1.0105,-0.9964,-0.9966,-0.9967,0,-0.8876,-0.894,-0.9017,-0.9063,-0.9102,-0.9178,-0.9229,-0.9264,-0.9318,-0.9406,-0.9459,-0.9552,-0.9628,-0.9778,-0.9838,-0.993,-0.9938,-0.9998,-0.9953,-0.994,-0.9941,-0.9936,-0.9944,-1.0007,-1.0008,-1.0009,-1.001,0,-0.901,-0.9023,-0.9092,-0.9168,-0.9226,-0.929,-0.9353,-0.9392,-0.9438,-0.9499,-0.959,-0.9649,-0.9767,-0.9861,-0.9957,-1.0006,-1.0018,-1.0023,-1.0043,-1.0034,-1.0013,-1.0027,-0.9853,-1.002,-1.0019,-1.0018,-1.0017,-1.0017,-0.9101,-0.9157,-0.9219,-0.9296,-0.9345,-0.9403,-0.9464,-0.9507,-0.9581,-0.9675,-0.9693,-0.9791,-0.9867,-0.9995,-1.0047,-1.0128,-1.0117,-1.0145,-1.0153,-1.016,-1.0162,-0.9998,-1.0146,-1.0146,-1.0146,-1.0146,-1.0146,0,-0.9235,-0.9274,-0.9344,-0.9428,-0.949,-0.9486,-0.9556,-0.961,-0.9693,-0.9759,-0.9831,-0.9938,-1.0028,-1.0093,-1.0187,-1.024,-1.0248,-1.0264,-1.0261,-1.0273,-1.0167,-1.014,-1.0255,-1.0255,-1.0255,-1.0255,-1.0255,-1.0255,-0.9312,-0.9407,-0.9428,-0.9551,-0.9592,-0.9681,-0.9721,-0.9777,-0.9829,-0.9944,-1.0016,-1.0055,-1.0123,-1.0221,-1.0305,-1.0323,-1.0358,-1.0373,-1.0392,-1.0292,-1.028,-1.0269,-1.0245,-1.038,-1.038,-1.0491,-1.0492,-1.0493]},{"header":{"parameterUnit":"m.s-1","parameterCategory":1,"la1":30.2991,"la2":30.254,"lo1":-89.0895,"lo2":-89.0444,"dy":0.0017,"dx":0.0017,"nx":28,"ny":28,"refTime":"2023-04-12T21:00:00:Z","depth":0,"parameterNumber":3,"parameterNumberName":"V-component_of_WINDS"},"data":[0,0,0,0,0,0,0,0,0,0,0,0,0,0,0,0,0,0,0,0,0,0,0,0,0,0,0,0,0,0,0,0,0,0,0,0,0,0,0,0,0,0,0,0,0,0,0,0,0,0,0,0,0,0,0,0,0,0,-9.037,-9.037,0,-9.0326,-9.0325,-9.0325,-9.011,-9.0105,-9.01,-9.0095,-9.0052,-9.0055,-9.0058,0,0,0,0,0,0,0,0,0,0,0,0,0,-9.0273,-9.0276,-9.037,-9.037,-9.0369,-9.0326,-9.0325,-9.0324,-9.0111,-9.0105,-9.0099,-9.0093,-9.005,-9.0055,-9.0059,0,0,0,0,0,0,0,0,0,0,0,0,0,-9.0281,-9.0277,-9.037,-9.0257,-9.0247,-9.0326,-9.0325,-9.0324,-9.0112,-9.0105,-9.0097,-9.009,-9.0049,-9.0054,-9.0059,-9.0244,0,0,-9.0076,-9.0078,0,0,0,0,0,0,0,0,-9.0281,-9.0285,-9.0275,-9.0265,-9.0254,-9.0216,-9.0275,-9.0298,-9.0114,-9.0164,-9.0095,-9.0086,-9.0112,-9.0112,-9.012,-9.0242,-9.024,-9.0076,-9.0079,-9.0082,-9.0083,0,0,0,0,0,0,0,-9.0281,-9.0286,-9.0353,-9.0275,-9.0262,-9.021,-9.0203,-9.0278,-9.0181,-9.0159,-9.0143,-9.0141,-9.0105,-9.0116,-9.0118,-9.024,-9.0076,-9.0081,-9.0084,-9.0086,-9.0513,-9.0521,0,0,0,0,0,0,-9.0296,-9.0287,-9.0354,-9.0351,-9.0249,-9.0218,-9.0209,-9.0236,-9.018,-9.0164,-9.0147,-9.0131,-9.011,-9.0112,-9.0115,-9.0329,-9.0082,-9.0087,-9.009,-9.0505,-9.0515,-9.0524,0,0,0,0,0,0,-9.0295,-9.0304,-9.0356,-9.0315,-9.0317,-9.0227,-9.0258,-9.0239,-9.0249,-9.0171,-9.0153,-9.0176,-9.0104,-9.0108,-9.0214,-9.0325,-9.0089,-9.0094,-9.0495,-9.0508,-9.0519,-9.0758,0,0,0,0,0,0,-9.0293,-9.0305,-9.0373,-9.0318,-9.032,-9.0455,-9.0265,-9.0243,-9.0258,-9.0237,-9.0193,-9.0178,-9.0099,-9.0207,-9.022,-9.0328,-9.0098,-9.0485,-9.0501,-9.0515,-9.074,-9.0777,-9.0809,0,0,0,0,0,-9.029,-9.0442,-9.0378,-9.0387,-9.0404,-9.0462,-9.0463,-9.0368,-9.0268,-9.0337,-9.0287,-9.018,-9.0311,-9.022,-9.0232,-9.0344,-9.0478,-9.0496,-9.0514,-9.0725,-9.077,-9.0808,0,0,0,0,0,0,-9.0513,-9.0433,-9.036,-9.0499,-9.0489,-9.0425,-9.0509,-9.0419,-9.0437,-9.0416,-9.0298,-9.029,-9.0414,-9.0389,-9.0289,-9.052,-9.0376,-9.0398,-9.0532,-9.0574,-9.0608,-9.0612,-9.0102,0,0,0,0,0,-9.0578,-9.0631,-9.0558,-9.0688,-9.0687,-9.06,-9.0621,-9.0549,-9.0534,-9.0529,-9.0486,-9.0477,-9.0515,-9.0543,-9.0574,-9.0736,-9.0724,-9.0818,-9.0853,-9.0881,-9.0902,-9.0987,-9.1028,-9.0584,-9.0584,-9.0583,0,0,-9.0714,-9.0676,-9.0717,-9.0732,-9.0715,-9.0774,-9.0597,-9.0666,-9.0709,-9.0539,-9.0637,-9.0606,-9.0587,-9.0723,-9.078,-9.0706,-9.1022,-9.0905,-9.0928,-9.0933,-9.101,-9.1052,-9.109,-9.0596,-9.0594,-9.0592,0,0,-9.099,-9.0967,-9.1073,-9.1061,-9.1038,-9.098,-9.1006,-9.0957,-9.093,-9.1026,-9.09,-9.095,-9.1019,-9.1011,-9.1017,-9.1294,-9.1196,-9.1307,-9.1487,-9.1571,-9.1607,-9.1637,-9.1737,-9.1774,-9.1328,-9.1328,-9.1329,0,-9.1161,-9.1244,-9.1139,-9.1217,-9.1228,-9.1077,-9.1185,-9.1178,-9.1168,-9.118,-9.1096,-9.1181,-9.1158,-9.129,-9.1358,-9.1367,-9.1394,-9.1312,-9.161,-9.1639,-9.1666,-9.176,-9.1798,-9.1342,-9.134,-9.1339,-9.1338,0,-9.1456,-9.1516,-9.1604,-9.1598,-9.1619,-9.1712,-9.1623,-9.1657,-9.1584,-9.1535,-9.1636,-9.1603,-9.1626,-9.1652,-9.1581,-9.1775,-9.173,-9.1631,-9.1483,-9.1724,-9.1811,-9.1846,-9.1362,-9.1357,-9.1353,-9.1349,0,0,-9.1871,-9.1807,-9.1842,-9.1838,-9.1803,-9.1848,-9.1934,-9.1956,-9.1989,-9.1987,-9.2058,-9.2121,-9.2029,-9.2036,-9.1963,-9.2037,-9.2261,-9.1928,-9.1926,-9.1992,-9.2475,-9.255,-9.2594,-9.2196,-9.2203,-9.2208,-9.2477,0,-9.2136,-9.2279,-9.2189,-9.2347,-9.2402,-9.2261,-9.2336,-9.2324,-9.2282,-9.2322,-9.2274,-9.2322,-9.2196,-9.22,-9.2267,-9.222,-9.2356,-9.2199,-9.2262,-9.2265,-9.2271,-9.2638,-9.2718,-9.2973,-9.251,-9.2515,-9.2519,0,-9.2464,-9.2478,-9.2642,-9.2598,-9.2618,-9.2687,-9.2701,-9.2742,-9.2726,-9.269,-9.2699,-9.2608,-9.2691,-9.2546,-9.266,-9.2556,-9.2576,-9.2557,-9.2565,-9.2567,-9.2407,-9.2652,-9.3052,-9.3091,-9.2571,-9.2567,-9.2563,0,-9.2752,-9.2811,-9.2917,-9.2918,-9.2869,-9.2922,-9.2905,-9.2881,-9.2901,-9.2914,-9.2926,-9.2949,-9.2962,-9.2982,-9.2901,-9.2803,-9.3027,-9.2875,-9.3,-9.3003,-9.3053,-9.3052,-9.3464,-9.3067,-9.3066,-9.3065,-9.3065,0,-9.3058,-9.3164,-9.3046,-9.3111,-9.3227,-9.3122,-9.324,-9.3207,-9.3188,-9.3246,-9.3125,-9.3182,-9.307,-9.3117,-9.3054,-9.3159,-9.3165,-9.3139,-9.3121,-9.315,-9.3154,-9.3162,-9.3143,-9.3075,-9.3073,-9.3071,-9.307,0,-9.3398,-9.3323,-9.343,-9.3376,-9.3365,-9.3453,-9.3406,-9.3465,-9.3415,-9.349,-9.3501,-9.3423,-9.3471,-9.3392,-9.343,-9.3388,-9.3535,-9.3489,-9.354,-9.3527,-9.3657,-9.3647,-9.409,-9.4144,-9.3712,-9.3716,-9.372,0,-9.3599,-9.3677,-9.3632,-9.3662,-9.3651,-9.3701,-9.3721,-9.3622,-9.3648,-9.3638,-9.3699,-9.3737,-9.3762,-9.3846,-9.3793,-9.3822,-9.3777,-9.3931,-9.3781,-9.3808,-9.3781,-9.3778,-9.3786,-9.3962,-9.3967,-9.3971,-9.3974,0,-9.3963,-9.3922,-9.3955,-9.3978,-9.4005,-9.4017,-9.402,-9.4052,-9.3948,-9.3984,-9.4031,-9.4051,-9.4091,-9.4131,-9.4148,-9.413,-9.4037,-9.4022,-9.4053,-9.4084,-9.4111,-9.4099,-9.3625,-9.4012,-9.4009,-9.4006,-9.4004,-9.4002,-9.424,-9.4304,-9.4283,-9.4324,-9.4317,-9.4324,-9.4377,-9.4334,-9.4372,-9.4396,-9.4336,-9.4399,-9.4383,-9.4396,-9.4389,-9.4438,-9.437,-9.4415,-9.4426,-9.4439,-9.446,-9.4103,-9.444,-9.4439,-9.4438,-9.4437,-9.4436,0,-9.4599,-9.4579,-9.4618,-9.4627,-9.4661,-9.4569,-9.4569,-9.4603,-9.466,-9.4653,-9.4681,-9.4737,-9.4776,-9.4727,-9.4757,-9.4806,-9.4764,-9.4817,-9.4813,-9.4811,-9.4518,-9.4489,-9.4851,-9.4851,-9.4851,-9.4851,-9.4851,-9.4851,-9.4789,-9.4893,-9.4851,-9.4951,-9.493,-9.499,-9.4999,-9.5005,-9.4998,-9.5067,-9.5098,-9.5066,-9.5043,-9.5071,-9.5103,-9.5087,-9.5105,-9.5174,-9.5145,-9.4872,-9.4831,-9.4793,-9.4764,-9.5179,-9.5179,-9.5433,-9.5435,-9.5437]}]]